Weather History for Buffalo, WY

Change the Weather History Date:

Saturday, December 15, 2012

  Actual Average Record
Temperature  
Mean Temperature 27 °F 25 °F  
Max Temperature 33 °F 36 °F 59 °F (2006)
Min Temperature 21 °F 15 °F -20 °F (2008)
Degree Days  
Heating Degree Days 38 40  
Month to date heating degree days 469 588  
Since 1 July heating degree days 2026 2422  
Moisture  
Dew Point 21 °F    
Average Humidity 72    
Maximum Humidity 85    
Minimum Humidity 59    
Precipitation  
Precipitation 0.00 in 0.01 in 0.10 in (2010)
Month to date precipitation 0.01 0.22  
Year to date precipitation 8.83 13.27  
Sea Level Pressure  
Sea Level Pressure 29.74 in    
Wind  
Wind Speed 8 mph (NE)    
Max Wind Speed 23 mph    
Max Gust Speed 33 mph    
Visibility 10 miles    
Events      
T = Trace of Precipitation, MM = Missing Value Source: NWS Daily Summary

Daily Weather History Graph

Daily Weather History Graph

Search for Another Location

Airport:

Trip Planner

Search our weather history database for the weather conditions in past years. The results will help you decide how hot, cold, wet, or windy it might be!

Date:

Astronomy

Dec. 15, 2012 Rise Set
Actual Time 7:36 AM MST 4:28 PM MST
Civil Twilight 7:03 AM MST 5:01 PM MST
Nautical Twilight 6:26 AM MST 5:38 PM MST
Astronomical Twilight 5:50 AM MST 6:13 PM MST
Moon 9:27 AM MST (12/15) 7:40 PM MST (12/15)
Length of Visible Light 9h 58m
Length of Day
8h 51m
Waxing Crescent, 9% of the Moon is Illuminated
Dec 15
Waxing Crescent
Dec 19
First Quarter
Dec 28
Full
Jan 4
Last Quarter
Jan 11
New

Hourly Weather History & Observations

Time (MST) Temp. Windchill Dew Point Humidity Pressure Visibility Wind Dir Wind Speed Gust Speed Precip Events Conditions
12:53 AM 30.9 °F 19.4 °F 21.0 °F 67% 29.65 in 10.0 mi NW 17.3 mph 25.3 mph N/A   Overcast
1:53 AM 30.9 °F 19.4 °F 21.9 °F 69% 29.66 in 10.0 mi NW 17.3 mph - N/A   Overcast
2:53 AM 30.0 °F 23.2 °F 21.9 °F 72% 29.68 in 10.0 mi North 6.9 mph - N/A   Overcast
3:53 AM 30.0 °F 18.3 °F 24.1 °F 79% 29.71 in 10.0 mi North 17.3 mph 23.0 mph N/A   Overcast
4:53 AM 30.0 °F 17.2 °F 24.1 °F 79% 29.75 in 10.0 mi North 20.7 mph 28.8 mph N/A   Overcast
5:42 AM 28.4 °F 15.1 °F 24.8 °F 86% 29.70 in 9.0 mi North 20.7 mph 27.6 mph N/A   Mostly Cloudy
5:53 AM 28.0 °F 14.6 °F 25.0 °F 88% 29.75 in 7.0 mi North 20.7 mph 33.4 mph N/A   Mostly Cloudy
7:53 AM 28.0 °F 20.0 °F 21.9 °F 78% 29.81 in 10.0 mi NW 8.1 mph - N/A   Overcast
8:53 AM 28.9 °F 23.9 °F 21.9 °F 75% 29.82 in 10.0 mi WNW 4.6 mph - N/A   Overcast
9:53 AM 30.0 °F 26.5 °F 21.9 °F 72% 29.83 in 10.0 mi NE 3.5 mph - N/A   Overcast
10:53 AM 30.0 °F 26.5 °F 23.0 °F 75% 29.82 in 10.0 mi NNE 3.5 mph - N/A   Overcast
11:53 AM 30.9 °F 27.5 °F 23.0 °F 72% 29.79 in 10.0 mi North 3.5 mph - N/A   Overcast
12:53 PM 32.0 °F - 23.0 °F 69% 29.77 in 10.0 mi Calm Calm - N/A   Overcast
1:53 PM 32.0 °F 27.5 °F 21.9 °F 66% 29.74 in 10.0 mi ESE 4.6 mph - N/A   Overcast
2:53 PM 32.0 °F 24.8 °F 19.9 °F 61% 29.75 in 10.0 mi ESE 8.1 mph - N/A   Overcast
3:53 PM 30.0 °F 24.1 °F 19.9 °F 66% 29.75 in 10.0 mi ESE 5.8 mph - N/A   Partly Cloudy
4:41 PM 30.2 °F 26.7 °F 21.2 °F 69% 29.69 in 10.0 mi ESE 3.5 mph - N/A   Overcast
4:53 PM 30.0 °F 24.1 °F 21.0 °F 69% 29.75 in 10.0 mi SE 5.8 mph - N/A   Overcast
5:53 PM 30.0 °F - 21.0 °F 69% 29.76 in 10.0 mi Calm Calm - N/A   Overcast
6:49 PM 26.6 °F 21.2 °F 19.4 °F 74% 29.67 in 10.0 mi South 4.6 mph - N/A   Scattered Clouds
6:53 PM 27.0 °F 21.6 °F 19.0 °F 72% 29.75 in 10.0 mi South 4.6 mph - N/A   Partly Cloudy
7:53 PM 26.1 °F 21.9 °F 18.0 °F 71% 29.75 in 10.0 mi SSE 3.5 mph - N/A   Partly Cloudy
8:53 PM 25.0 °F - 17.1 °F 72% 29.73 in - Calm Calm - N/A   Unknown
9:53 PM 24.1 °F - 16.0 °F 71% 29.73 in 10.0 mi Calm Calm - N/A   Clear
10:53 PM 23.0 °F 15.8 °F 16.0 °F 74% 29.72 in 10.0 mi SSE 5.8 mph - N/A   Mostly Cloudy
11:53 PM 25.0 °F 20.7 °F 15.1 °F 66% 29.69 in 10.0 mi South 3.5 mph - N/A   Overcast